Content
SEND FEEDBACK

Daily
Averages
Monthly
Summary
United States of America

STATEN ISLAND, NEW YORK


Home > North America > United States > New York
Elevation: 152 feet     Latitude: 40 35N     Longitude: 074 09W

WEATHER
 
SELECT A DAY
Number of Records: 192,417;   Date Range: 1/1/95 - 10/22/14
 
SHARE

PRINT THIS DATA

[ ← Previous Day ]
WEATHER ALMANAC - SEPTEMBER 28, 2013
[ Next Day → ]
[ °C ]   °F
Weather ElementAverageHighLow
Temperature64.6 °F73 °F (1:51 pm)55.9 °F (6:51 am)
Dewpoint51.8 °F54 °F (9:51 pm)48 °F (1:51 pm)
Humidity65 %87 % (6:51 am)41 % (1:51 pm)
Barometer30.28 in30.33 in (9:51 am)30.24 in (11:51 pm)
Wind Speed6.2 mph10.4 mph (8:51 am)
Weather ElementAverage
Visibility10 mi
Wind DirectionNE (43.3 °)

Weather ElementTotal
Precipitation---
Heating Degree Days0.5 (Base 65)
Growing Degree Days14.5 (Base 50)
Averaged from 24 records on September 28, 2013
WEATHER CONDITIONS BREAKOUT
WIND DIRECTION BREAKOUT
WEATHER BY HOUR - SEPTEMBER 28, 2013
[ °C ]   °F
Local TimeTemperatureDewpointHumidityBarometerVisibilityWind DirectionWind SpeedGust SpeedPrecipitationEventsConditions
1:51 AM57.9 °F52.0 °F81 %30.27 in10.0 miNorth (10°)6.9 mphScattered Clouds
2:51 AM57.9 °F53.1 °F84 %30.26 in10.0 miNorth (10°)8.1 mphOvercast
3:51 AM59.0 °F52.0 °F78 %30.26 in10.0 miNorth (10°)9.2 mphMostly Cloudy
4:51 AM57.0 °F52.0 °F83 %30.27 in10.0 miNNE (20°)8.1 mphPartly Cloudy
5:51 AM57.0 °F52.0 °F83 %30.29 in10.0 miNorth (10°)9.2 mphPartly Cloudy
6:51 AM55.9 °F52.0 °F87 %30.30 in10.0 miNorth (10°)8.1 mphPartly Cloudy
7:51 AM57.9 °F52.0 °F81 %30.31 in10.0 miNNE (20°)9.2 mphPartly Cloudy
8:51 AM61.0 °F53.1 °F75 %30.32 in10.0 miNNE (20°)10.4 mphPartly Cloudy
9:51 AM64.9 °F52.0 °F63 %30.33 in10.0 miNNE (20°)9.2 mphClear
10:51 AM68.0 °F51.1 °F55 %30.33 in10.0 miNNE (30°)10.4 mphPartly Cloudy
11:51 AM70.0 °F51.1 °F51 %30.32 in10.0 miNE (50°)9.2 mphScattered Clouds
12:51 PM72.0 °F50.0 °F46 %30.30 in10.0 miNE (50°)5.8 mphScattered Clouds
1:51 PM73.0 °F48.0 °F41 %30.28 in10.0 miEast (90°)8.1 mphScattered Clouds
2:51 PM73.0 °F48.0 °F41 %30.27 in10.0 miVariable6.9 mphScattered Clouds
3:51 PM73.0 °F48.9 °F42 %30.26 in10.0 miENE (60°)9.2 mphScattered Clouds
4:51 PM72.0 °F51.1 °F48 %30.25 in10.0 miSE (140°)5.8 mphScattered Clouds
5:51 PM69.1 °F52.0 °F54 %30.26 in10.0 miSSE (150°)4.6 mphScattered Clouds
6:51 PM66.9 °F52.0 °F59 %30.26 in10.0 miSouth (170°)6.9 mphScattered Clouds
7:13 PM66.2 °F53.6 °F64 %30.26 in10.0 miSouth (170°)4.6 mphScattered Clouds
7:51 PM64.0 °F53.1 °F67 %30.26 in10.0 miCalmScattered Clouds
8:51 PM64.0 °F53.1 °F67 %30.26 in10.0 miCalmPartly Cloudy
9:51 PM63.0 °F54.0 °F72 %30.26 in10.0 miCalmPartly Cloudy
10:51 PM64.0 °F53.1 °F67 %30.26 in10.0 miCalmPartly Cloudy
11:51 PM63.0 °F54.0 °F72 %30.24 in10.0 miCalmPartly Cloudy
Hourly data recorded from KEWR, located miles away from Staten Island, New York







STORIES FROM OUR PARTNERS